Terminal Aerodrome Forecast
Issued by NWS

Home | Current Version | Previous Version | Text Only | Print | Product List | Glossary Off
Versions: 1 2 3 4 5 6 7 8 9 10 11 12 13 14 15 16 17 18 19 20 21

000
FTUS43 KABR 301031 AAA
TAFATY
TAF AMD
KATY 301031Z 3011/3106 17010KT P6SM SCT250
      TEMPO 3011/3014 4SM BR
     FM301700 19015G22KT P6SM SKC=

USA.gov is the U.S. government's official web portal to all federal, state and local government web resources and services.